Time,TemperatureF,DewpointF,PressureIn,WindDirection,WindDirectionDegrees,WindSpeedMPH,WindSpeedGustMPH,Humidity,HourlyPrecipIn,Conditions,Clouds,dailyrainin,SoftwareType,DateUTC
2013-05-28 00:07:00,69.8,67.7,29.83,South,180,0.0,-999.0,93,-99.99,,,0.00,Acu-Link.com,2013-05-28 04:07:00,
2013-05-28 00:22:00,69.3,67.2,29.84,WSW,247,0.0,-999.0,93,-99.99,,,0.00,Acu-Link.com,2013-05-28 04:22:00,
2013-05-28 00:37:00,68.2,66.4,29.83,WSW,247,0.0,-999.0,94,-99.99,,,0.00,Acu-Link.com,2013-05-28 04:37:00,
2013-05-28 00:52:00,67.3,65.8,29.83,WSW,247,0.0,-999.0,95,-99.99,,,0.00,Acu-Link.com,2013-05-28 04:52:00,
2013-05-28 01:08:00,66.4,65.8,29.83,WSW,247,0.0,-999.0,98,-99.99,,,0.00,Acu-Link.com,2013-05-28 05:08:00,
2013-05-28 01:23:00,65.5,64.9,29.83,WSW,247,0.0,-999.0,98,-99.99,,,0.00,Acu-Link.com,2013-05-28 05:23:00,
2013-05-28 01:38:00,64.8,64.2,29.82,WNW,292,0.0,-999.0,98,-99.99,,,0.00,Acu-Link.com,2013-05-28 05:38:00,
2013-05-28 01:53:00,64.4,63.8,29.82,East,90,0.0,-999.0,98,-99.99,,,0.00,Acu-Link.com,2013-05-28 05:53:00,
2013-05-28 02:08:00,63.9,63.3,29.82,NW,315,0.0,-999.0,98,-99.99,,,0.00,Acu-Link.com,2013-05-28 06:08:00,
2013-05-28 02:23:00,63.7,63.1,29.82,NW,315,0.0,-999.0,98,-99.99,,,0.00,Acu-Link.com,2013-05-28 06:23:00,
2013-05-28 02:38:00,63.3,62.7,29.82,WNW,292,0.0,-999.0,98,-99.99,,,0.00,Acu-Link.com,2013-05-28 06:38:00,
2013-05-28 02:53:00,63.0,62.4,29.82,WNW,292,0.0,-999.0,98,-99.99,,,0.00,Acu-Link.com,2013-05-28 06:53:00,
2013-05-28 03:08:00,62.8,62.2,29.82,ESE,112,0.0,-999.0,98,-99.99,,,0.00,Acu-Link.com,2013-05-28 07:08:00,
2013-05-28 03:24:00,62.8,62.2,29.82,WNW,292,0.0,-999.0,98,-99.99,,,0.00,Acu-Link.com,2013-05-28 07:24:00,
2013-05-28 03:39:00,62.2,61.6,29.82,West,270,0.0,-999.0,98,-99.99,,,0.00,Acu-Link.com,2013-05-28 07:39:00,
2013-05-28 03:54:00,62.2,61.6,29.82,SSW,202,0.0,-999.0,98,-99.99,,,0.00,Acu-Link.com,2013-05-28 07:54:00,
2013-05-28 04:09:00,61.9,61.3,29.82,West,270,0.0,-999.0,98,-99.99,,,0.00,Acu-Link.com,2013-05-28 08:09:00,
2013-05-28 04:24:00,61.7,61.1,29.82,West,270,0.0,-999.0,98,-99.99,,,0.00,Acu-Link.com,2013-05-28 08:24:00,
2013-05-28 04:39:00,61.5,60.9,29.82,WNW,292,0.0,-999.0,98,-99.99,,,0.00,Acu-Link.com,2013-05-28 08:39:00,
2013-05-28 04:54:00,61.7,61.1,29.82,South,180,0.0,-999.0,98,-99.99,,,0.00,Acu-Link.com,2013-05-28 08:54:00,
2013-05-28 05:09:00,61.2,60.6,29.83,North,0,0.0,-999.0,98,-99.99,,,0.00,Acu-Link.com,2013-05-28 09:09:00,
2013-05-28 05:24:00,61.3,60.7,29.84,SE,135,0.0,-999.0,98,-99.99,,,0.00,Acu-Link.com,2013-05-28 09:24:00,
2013-05-28 05:40:00,61.3,60.7,29.85,NW,315,0.0,-999.0,98,-99.99,,,0.00,Acu-Link.com,2013-05-28 09:40:00,
2013-05-28 05:55:00,61.9,61.3,29.85,SW,225,0.0,-999.0,98,-99.99,,,0.00,Acu-Link.com,2013-05-28 09:55:00,
2013-05-28 06:10:00,61.5,60.9,29.86,SW,225,0.0,-999.0,98,-99.99,,,0.00,Acu-Link.com,2013-05-28 10:10:00,
2013-05-28 06:25:00,61.7,61.1,29.87,SW,225,0.0,-999.0,98,-99.99,,,0.00,Acu-Link.com,2013-05-28 10:25:00,
2013-05-28 06:40:00,61.5,60.9,29.85,WSW,247,0.0,-999.0,98,-99.99,,,0.00,Acu-Link.com,2013-05-28 10:40:00,
2013-05-28 06:55:00,61.7,61.1,29.85,ENE,67,0.0,-999.0,98,-99.99,,,0.00,Acu-Link.com,2013-05-28 10:55:00,
2013-05-28 07:10:00,61.9,61.3,29.87,NNE,22,0.0,-999.0,98,-99.99,,,0.00,Acu-Link.com,2013-05-28 11:10:00,
2013-05-28 07:25:00,62.6,62.0,29.86,NW,315,0.0,-999.0,98,-99.99,,,0.00,Acu-Link.com,2013-05-28 11:25:00,
2013-05-28 07:40:00,63.7,63.1,29.87,NNW,337,0.0,-999.0,98,-99.99,,,0.00,Acu-Link.com,2013-05-28 11:40:00,
2013-05-28 07:56:00,66.0,65.4,29.88,NNE,22,0.0,-999.0,98,-99.99,,,0.00,Acu-Link.com,2013-05-28 11:56:00,
2013-05-28 08:11:00,71.2,70.6,29.88,NNW,337,1.1,-999.0,98,-99.99,,,0.00,Acu-Link.com,2013-05-28 12:11:00,
2013-05-28 08:26:00,71.8,67.4,29.89,SSW,202,3.7,-999.0,86,-99.99,,,0.00,Acu-Link.com,2013-05-28 12:26:00,
2013-05-28 08:41:00,72.0,67.6,29.89,SW,225,2.7,-999.0,86,-99.99,,,0.00,Acu-Link.com,2013-05-28 12:41:00,
2013-05-28 08:56:00,72.3,67.2,29.89,SW,225,2.2,-999.0,84,-99.99,,,0.00,Acu-Link.com,2013-05-28 12:56:00,
2013-05-28 09:11:00,72.1,67.0,29.90,South,180,4.7,-999.0,84,-99.99,,,0.00,Acu-Link.com,2013-05-28 13:11:00,
2013-05-28 09:26:00,73.6,67.8,29.90,South,180,3.7,-999.0,82,-99.99,,,0.00,Acu-Link.com,2013-05-28 13:26:00,
2013-05-28 09:41:00,74.3,68.1,29.90,SSE,157,3.7,-999.0,81,-99.99,,,0.00,Acu-Link.com,2013-05-28 13:41:00,
2013-05-28 09:56:00,76.5,69.1,29.90,SSW,202,4.7,-999.0,78,-99.99,,,0.00,Acu-Link.com,2013-05-28 13:56:00,
2013-05-28 10:12:00,76.8,69.0,29.90,SSW,202,3.2,-999.0,77,-99.99,,,0.00,Acu-Link.com,2013-05-28 14:12:00,
2013-05-28 10:27:00,78.1,69.5,29.90,WSW,247,3.7,-999.0,75,-99.99,,,0.00,Acu-Link.com,2013-05-28 14:27:00,
2013-05-28 10:42:00,77.9,68.9,29.90,South,180,1.7,-999.0,74,-99.99,,,0.00,Acu-Link.com,2013-05-28 14:42:00,
2013-05-28 10:57:00,78.6,68.4,29.89,East,90,2.7,-999.0,71,-99.99,,,0.00,Acu-Link.com,2013-05-28 14:57:00,
2013-05-28 11:12:00,80.8,70.1,29.89,East,90,2.2,-999.0,70,-99.99,,,0.00,Acu-Link.com,2013-05-28 15:12:00,
2013-05-28 11:27:00,82.2,69.7,29.89,SW,225,2.7,-999.0,66,-99.99,,,0.00,Acu-Link.com,2013-05-28 15:27:00,
2013-05-28 11:42:00,81.9,69.4,29.89,SW,225,4.7,-999.0,66,-99.99,,,0.00,Acu-Link.com,2013-05-28 15:42:00,
2013-05-28 11:57:00,83.1,69.6,29.88,East,90,1.7,-999.0,64,-99.99,,,0.00,Acu-Link.com,2013-05-28 15:57:00,
2013-05-28 12:12:00,82.6,67.3,29.88,SW,225,4.7,-999.0,60,-99.99,,,0.00,Acu-Link.com,2013-05-28 16:12:00,
2013-05-28 12:28:00,83.7,69.3,29.87,SSW,202,4.7,-999.0,62,-99.99,,,0.00,Acu-Link.com,2013-05-28 16:28:00,
2013-05-28 12:43:00,84.4,68.5,29.87,SSW,202,6.8,-999.0,59,-99.99,,,0.00,Acu-Link.com,2013-05-28 16:43:00,
2013-05-28 12:58:00,85.5,69.0,29.86,South,180,7.3,-999.0,58,-99.99,,,0.00,Acu-Link.com,2013-05-28 16:58:00,
2013-05-28 13:13:00,85.8,69.8,29.85,South,180,4.2,-999.0,59,-99.99,,,0.00,Acu-Link.com,2013-05-28 17:13:00,
2013-05-28 13:28:00,84.7,67.8,29.86,SSW,202,6.3,-999.0,57,-99.99,,,0.00,Acu-Link.com,2013-05-28 17:28:00,
2013-05-28 13:43:00,85.1,67.6,29.84,South,180,8.3,-999.0,56,-99.99,,,0.00,Acu-Link.com,2013-05-28 17:43:00,
2013-05-28 13:58:00,86.4,69.3,29.84,South,180,6.8,-999.0,57,-99.99,,,0.00,Acu-Link.com,2013-05-28 17:58:00,
2013-05-28 14:13:00,85.1,66.6,29.85,South,180,8.9,-999.0,54,-99.99,,,0.00,Acu-Link.com,2013-05-28 18:13:00,
2013-05-28 14:28:00,86.4,68.3,29.84,SW,225,4.7,-999.0,55,-99.99,,,0.00,Acu-Link.com,2013-05-28 18:28:00,
2013-05-28 14:44:00,87.6,69.9,29.83,NNE,22,1.7,-999.0,56,-99.99,,,0.00,Acu-Link.com,2013-05-28 18:44:00,
2013-05-28 14:59:00,85.8,67.7,29.83,SSW,202,8.9,-999.0,55,-99.99,,,0.00,Acu-Link.com,2013-05-28 18:59:00,
2013-05-28 15:14:00,87.6,68.9,29.82,SW,225,4.2,-999.0,54,-99.99,,,0.00,Acu-Link.com,2013-05-28 19:14:00,
2013-05-28 15:29:00,87.3,68.0,29.83,SSW,202,7.8,-999.0,53,-99.99,,,0.00,Acu-Link.com,2013-05-28 19:29:00,
2013-05-28 15:44:00,86.7,68.0,29.83,South,180,5.3,-999.0,54,-99.99,,,0.00,Acu-Link.com,2013-05-28 19:44:00,
2013-05-28 15:59:00,86.5,66.8,29.82,SSW,202,10.4,-999.0,52,-99.99,,,0.00,Acu-Link.com,2013-05-28 19:59:00,
2013-05-28 16:14:00,86.4,66.7,29.82,SW,225,4.7,-999.0,52,-99.99,,,0.00,Acu-Link.com,2013-05-28 20:14:00,
2013-05-28 16:30:00,85.8,67.2,29.82,SSW,202,6.3,-999.0,54,-99.99,,,0.00,Acu-Link.com,2013-05-28 20:30:00,
2013-05-28 16:45:00,87.3,68.0,29.81,SSE,157,5.8,-999.0,53,-99.99,,,0.00,Acu-Link.com,2013-05-28 20:45:00,
2013-05-28 17:00:00,87.1,67.3,29.81,South,180,8.9,-999.0,52,-99.99,,,0.00,Acu-Link.com,2013-05-28 21:00:00,
2013-05-28 17:15:00,87.1,67.9,29.81,South,180,5.3,-999.0,53,-99.99,,,0.00,Acu-Link.com,2013-05-28 21:15:00,
2013-05-28 17:30:00,87.8,68.5,29.81,SSW,202,3.7,-999.0,53,-99.99,,,0.00,Acu-Link.com,2013-05-28 21:30:00,
2013-05-28 17:45:00,90.5,68.7,29.80,South,180,4.7,-999.0,49,-99.99,,,0.00,Acu-Link.com,2013-05-28 21:45:00,
2013-05-28 18:00:00,88.0,68.7,29.80,SSW,202,5.8,-999.0,53,-99.99,,,0.00,Acu-Link.com,2013-05-28 22:00:00,
2013-05-28 18:15:00,87.1,67.9,29.81,SSW,202,6.3,-999.0,53,-99.99,,,0.00,Acu-Link.com,2013-05-28 22:15:00,
2013-05-28 18:30:00,87.6,68.9,29.81,SSW,202,6.3,-999.0,54,-99.99,,,0.00,Acu-Link.com,2013-05-28 22:30:00,
2013-05-28 18:46:00,85.5,68.0,29.80,SW,225,6.8,-999.0,56,-99.99,,,0.00,Acu-Link.com,2013-05-28 22:46:00,
2013-05-28 19:01:00,83.8,67.4,29.80,South,180,6.8,-999.0,58,-99.99,,,0.00,Acu-Link.com,2013-05-28 23:01:00,
2013-05-28 19:16:00,83.7,68.8,29.80,SSW,202,4.2,-999.0,61,-99.99,,,0.00,Acu-Link.com,2013-05-28 23:16:00,
2013-05-28 19:31:00,82.6,67.8,29.80,SSW,202,3.7,-999.0,61,-99.99,,,0.00,Acu-Link.com,2013-05-28 23:31:00,
2013-05-28 19:46:00,82.4,67.6,29.80,South,180,3.2,-999.0,61,-99.99,,,0.00,Acu-Link.com,2013-05-28 23:46:00,
2013-05-28 20:01:00,81.5,67.2,29.80,SSW,202,3.2,-999.0,62,-99.99,,,0.00,Acu-Link.com,2013-05-29 00:01:00,
2013-05-28 20:16:00,80.8,67.0,29.80,SW,225,1.7,-999.0,63,-99.99,,,0.00,Acu-Link.com,2013-05-29 00:16:00,
2013-05-28 20:31:00,79.3,66.9,29.80,SSW,202,1.1,-999.0,66,-99.99,,,0.00,Acu-Link.com,2013-05-29 00:31:00,
2013-05-28 20:46:00,77.7,67.1,29.81,NNW,337,0.0,-999.0,70,-99.99,,,0.00,Acu-Link.com,2013-05-29 00:46:00,
2013-05-28 21:02:00,75.6,66.7,29.80,WNW,292,0.0,-999.0,74,-99.99,,,0.00,Acu-Link.com,2013-05-29 01:02:00,
2013-05-28 21:17:00,73.9,65.5,29.81,NNW,337,0.0,-999.0,75,-99.99,,,0.00,Acu-Link.com,2013-05-29 01:17:00,
2013-05-28 21:32:00,72.3,66.5,29.80,NNW,337,0.0,-999.0,82,-99.99,,,0.00,Acu-Link.com,2013-05-29 01:32:00,
2013-05-28 21:47:00,70.9,66.5,29.82,NNW,337,0.0,-999.0,86,-99.99,,,0.00,Acu-Link.com,2013-05-29 01:47:00,
2013-05-28 22:02:00,69.8,66.7,29.82,NW,315,0.0,-999.0,90,-99.99,,,0.00,Acu-Link.com,2013-05-29 02:02:00,
2013-05-28 22:17:00,68.7,65.6,29.82,NNW,337,0.0,-999.0,90,-99.99,,,0.00,Acu-Link.com,2013-05-29 02:17:00,
2013-05-28 22:32:00,68.0,65.9,29.82,WNW,292,0.0,-999.0,93,-99.99,,,0.00,Acu-Link.com,2013-05-29 02:32:00,
2013-05-28 22:47:00,67.3,65.2,29.82,South,180,0.0,-999.0,93,-99.99,,,0.00,Acu-Link.com,2013-05-29 02:47:00,
2013-05-28 23:02:00,66.7,64.9,29.82,West,270,0.0,-999.0,94,-99.99,,,0.00,Acu-Link.com,2013-05-29 03:02:00,
2013-05-28 23:18:00,66.4,65.2,29.82,WNW,292,0.0,-999.0,96,-99.99,,,0.00,Acu-Link.com,2013-05-29 03:18:00,
2013-05-28 23:33:00,65.7,65.1,29.83,West,270,0.0,-999.0,98,-99.99,,,0.00,Acu-Link.com,2013-05-29 03:33:00,
2013-05-28 23:48:00,65.7,64.8,29.83,NNW,337,0.0,-999.0,97,-99.99,,,0.00,Acu-Link.com,2013-05-29 03:48:00,